星链-3126 (STARLINK-3126 )

导读

STARLINK-3126是美国太空探索技术公司(SpaceX)星链(Starlink)卫星互联网项目中的卫星,于2021年11月13日发射入轨,属于星链低轨卫星星座组网卫星,承担卫星互联网信号中继服务,为全球提供高速低延迟的宽带互联网接入服务。

Basic Information
目录编号:
49444
目录名称:
STARLINK-3126
国际标识:
2021-104AN
轨道中心:
EARTH
卫星名称:
星链-3126
卫星全名:
星链-3126 (STARLINK-3126 )
卫星状态:
在轨 (已飞行1757 天)
发射日期:
2021-11-13 UTC
国别 :
美国 (US)
星等 :
--
Orbit Information
数据来源 国际轨道数据 AOE轨道数据
星历时间 2026-09-05T11:27:03+0800
5小时前
查看轨道信息
2026-09-03T22:00:00+0800
1天前
查看轨道信息
半长轴 6848.9km 6848.865km
偏心率 0.000142 0.0001537
轨道倾角 53.160° 53.159°
近地点辐角 101.563° 73.937°
升交点赤经 120.353° 127.619°
平近点角 258.553° 316.902°
近地点 469.79km 469.675km
远地点 471.736km 471.781km
周期 94.014分钟 94.013分钟
每日圈数 15.316923 15.317042
Detailed Information
固有亮度:
5
最大亮度:
2.5
卫星平台:
Starlink v1.5
覆盖范围:
全球
运营商:
太空探索技术公司
运营商所在国:
美国
制造商(研发单位):
太空探索技术公司
制造商所在国:
美国
使用方式:
暂无
Satellite Introduction
星链(Starlink)计划是由太空探索技术公司(SpaceX)提出的一个巨型低轨卫星互联网星座项目,计划在2019年至2024年间在太空搭建由约1.2万颗卫星组成的“星链”网络,其中1584颗将部署在地球上空550千米处的近地轨道,并从2020年开始工作。该卫星仍在工作。
2D Orbit Map
3D Orbit Map
Orbit Altitude Analysis Chart
Orbit Inclination Analysis Chart
Orbit Comprehensive Analysis Chart
View Comprehensive Chart
Conjunction Data List
Event ID Objects TCA Miss Dist (km) Collision Risk Probability Collision Risk Index (CRI) Action
CDM_260907-001304-944405-245521
2026-09-07T
00:13:14+0000
1.553 km
极远距离
5.034343E-6 低风险 0.49
CDM_260907-142904-944405-846921
2026-09-07T
14:29:22+0000
2.613 km
极远距离
1.539543E-6 低风险 0.39
CDM_260901-130104-944406-781721
2026-09-01T
13:01:08+0000
2.845 km
极远距离
1.100694E-6 低风险 0.36